[[{"header":{"parameterUnit":"m.s-1","parameterCategory":1,"la1":30.2992,"la2":30.254,"lo1":-89.0895,"lo2":-89.0443,"dy":0.0025,"dx":0.0025,"nx":19,"ny":19,"refTime":"2026-05-09T09:00:00:Z","depth":0,"parameterNumber":2,"parameterNumberName":"U-component_of_WINDS"},"data":[0,0,0,1.0016,1.0017,1.0013,1.0013,1.0017,1.0017,0,0,0,0,0,0,0,0,0,0,0,1.0022,1.0022,1.0016,1.0017,1.0013,1.0013,1.0017,1.0017,0,0,0,0,0,0,0,0,0,0,0,1.0022,1.0022,1.0023,1.0017,1.0013,1.0013,1.0017,1.0016,0,0,0,0,0,0,0,0,0,0,1.0018,1.0028,1.0022,1.0023,1.0017,1.0013,1.0013,1.0016,1.0016,1.0022,0,1.0027,0,1.0022,1.0017,1.0018,0,0,0,1.0013,1.0028,1.0023,1.0023,1.0017,1.0013,1.0014,1.0016,1.0016,1.0022,1.0027,1.0027,1.0022,1.0018,1.0018,1.0061,1.0061,0,0,1.0013,1.0024,1.0023,1.0023,1.0024,1.0014,1.0013,1.0016,1.0023,1.0027,1.0027,1.0022,1.0018,1.0018,1.0061,1.0061,0,0,0,1.0016,1.0024,1.0019,1.0023,1.0022,1.0014,1.0013,1.0023,1.002,1.0027,1.0022,1.0018,1.0018,1.006,1.0061,1.009,0,0,0,1.0016,1.0026,1.0019,1.0026,1.0022,1.0022,1.002,1.002,1.002,1.0022,1.0018,1.0018,1.006,1.006,1.0089,1.0103,0,0,0,1.0021,1.0026,1.0028,1.0026,1.0025,1.0022,1.0019,1.002,1.0017,1.0018,1.0018,1.0059,1.006,1.0087,1.01,1.0119,0,0,0,1.0029,1.0053,1.0028,1.0053,1.0025,1.004,1.0019,1.0029,1.0033,1.0018,1.006,1.0061,1.0087,1.0099,1.0117,1.0137,1.0146,0,0,1.0065,1.0058,1.0071,1.0049,1.0071,1.004,1.0066,1.0059,1.0049,1.0058,1.0059,1.0089,1.01,1.0118,1.019,1.0198,0,0,0,1.0087,1.0097,1.01,1.0105,1.0101,1.0098,1.0086,1.0084,1.0091,1.0056,1.01,1.0106,1.0116,1.0125,1.0131,1.014,1.0065,1.0065,1.0065,1.0153,1.014,1.0163,1.0149,1.0154,1.0142,1.0145,1.014,1.0124,1.0135,1.0138,1.0183,1.0194,1.0199,1.0208,1.0146,1.0146,1.0146,1.0146,1.0206,1.0219,1.0199,1.0214,1.02,1.0212,1.0203,1.0191,1.0201,1.0179,1.0188,1.0166,1.0207,1.0215,1.0149,1.0148,1.0148,1.0148,1.0148,1.0249,1.0253,1.025,1.0257,1.0264,1.0249,1.0261,1.0247,1.0234,1.0243,1.0245,1.0245,1.0244,1.0245,1.0245,1.0245,1.0245,1.0245,1.0245,1.0295,1.0291,1.0302,1.0301,1.0303,1.0305,1.0294,1.0296,1.0295,1.0284,1.0284,1.0269,1.0213,1.02,1.0248,1.0247,1.0247,1.0247,1.0247,1.0355,1.034,1.0357,1.036,1.0358,1.0367,1.035,1.0356,1.0355,1.0362,1.0344,1.0305,1.0296,1.0291,1.0281,1.0346,1.0346,1.0346,1.0346,1.0393,1.0387,1.0403,1.0408,1.0411,1.0398,1.042,1.0413,1.0403,1.0402,1.0391,1.0375,1.0371,1.0365,1.0358,1.0348,1.0429,1.0429,1.0429,1.043,1.0424,1.0445,1.0435,1.0434,1.0433,1.0454,1.0461,1.0447,1.0433,1.0402,1.0399,1.0373,1.0365,1.0351,1.0341,1.0322,0,0]},{"header":{"parameterUnit":"m.s-1","parameterCategory":1,"la1":30.2992,"la2":30.254,"lo1":-89.0895,"lo2":-89.0443,"dy":0.0025,"dx":0.0025,"nx":19,"ny":19,"refTime":"2026-05-09T09:00:00:Z","depth":0,"parameterNumber":3,"parameterNumberName":"V-component_of_WINDS"},"data":[0,0,0,1.4669,1.4671,1.4752,1.4753,1.4855,1.4856,0,0,0,0,0,0,0,0,0,0,0,1.4642,1.4642,1.4669,1.4671,1.4752,1.4753,1.4855,1.4856,0,0,0,0,0,0,0,0,0,0,0,1.4641,1.4642,1.4643,1.4671,1.4752,1.4753,1.4855,1.4794,0,0,0,0,0,0,0,0,0,0,1.4715,1.4687,1.4642,1.4643,1.4671,1.4752,1.4753,1.4791,1.4798,1.4816,0,1.4831,0,1.4845,1.4862,1.4863,0,0,0,1.4673,1.4681,1.4706,1.4643,1.4672,1.4752,1.4716,1.4795,1.4803,1.4825,1.4832,1.4836,1.4846,1.4863,1.4863,1.4958,1.4958,0,0,1.4669,1.4655,1.4701,1.471,1.4696,1.4714,1.4719,1.48,1.4807,1.4832,1.4838,1.4848,1.4864,1.4864,1.4958,1.4958,0,0,0,1.4654,1.4652,1.4675,1.4706,1.4721,1.4716,1.4722,1.4803,1.4812,1.484,1.4849,1.4864,1.4865,1.4957,1.4958,1.496,0,0,0,1.4652,1.4643,1.4672,1.4665,1.4719,1.4763,1.4724,1.4806,1.4816,1.4849,1.4864,1.4866,1.4957,1.4958,1.496,1.4964,0,0,0,1.4637,1.4642,1.4652,1.4664,1.4698,1.4762,1.4775,1.4809,1.4822,1.4863,1.4867,1.4957,1.4958,1.4959,1.4963,1.4986,0,0,0,1.4619,1.4653,1.4652,1.4695,1.4698,1.4762,1.4775,1.4824,1.4859,1.4865,1.4957,1.4958,1.4959,1.4963,1.4985,1.5004,1.501,0,0,1.4655,1.4657,1.4683,1.4685,1.4745,1.4751,1.4813,1.4859,1.4876,1.493,1.4933,1.496,1.4963,1.4986,1.5046,1.505,0,0,0,1.469,1.4709,1.4728,1.4761,1.4796,1.4827,1.4865,1.4882,1.4929,1.49,1.4974,1.4977,1.4991,1.5,1.5004,1.5018,1.4961,1.4961,1.4961,1.4723,1.4742,1.4787,1.4816,1.4847,1.4886,1.4914,1.4944,1.4955,1.4972,1.4989,1.5022,1.5033,1.5036,1.505,1.4999,1.4999,1.4999,1.4999,1.4779,1.4809,1.4821,1.487,1.489,1.4932,1.497,1.4977,1.5019,1.5011,1.5024,1.5015,1.504,1.5054,1.4999,1.4999,1.4999,1.4999,1.4999,1.4803,1.4821,1.484,1.489,1.4926,1.4955,1.4995,1.5012,1.5029,1.5042,1.5063,1.5063,1.5067,1.505,1.505,1.5051,1.5051,1.5051,1.5051,1.4822,1.4843,1.4875,1.4915,1.4938,1.4972,1.5011,1.5035,1.5067,1.5077,1.5077,1.5087,1.5038,1.5027,1.5053,1.5052,1.5052,1.5052,1.5052,1.4874,1.4865,1.4913,1.4936,1.4986,1.5022,1.5042,1.5091,1.5113,1.5133,1.514,1.51,1.5105,1.5102,1.5093,1.5134,1.5134,1.5134,1.5134,1.4896,1.4899,1.4953,1.499,1.5027,1.5051,1.5107,1.5138,1.517,1.5185,1.5181,1.517,1.5166,1.5173,1.5168,1.516,1.5218,1.5218,1.5218,1.493,1.4938,1.4981,1.501,1.505,1.5085,1.5138,1.5182,1.5215,1.5222,1.5198,1.5195,1.5177,1.5169,1.5177,1.517,1.5155,0,0]}]]